owner,sensor,date,latitude,longitude,relative_humidity,qcFlag 
DISL,ioos:station:DISL:KATA:1,2017-04-01T00:00:00Z,30.2583,-88.2131,62.01,1111122 
DISL,ioos:station:DISL:KATA:1,2017-04-01T00:30:00Z,30.2583,-88.2131,60.01,1111122 
DISL,ioos:station:DISL:KATA:1,2017-04-01T01:00:00Z,30.2583,-88.2131,62.58,1111122 
DISL,ioos:station:DISL:KATA:1,2017-04-01T01:30:00Z,30.2583,-88.2131,63.54,1111122 
DISL,ioos:station:DISL:KATA:1,2017-04-01T02:00:00Z,30.2583,-88.2131,64.76,1111122 
DISL,ioos:station:DISL:KATA:1,2017-04-01T02:30:00Z,30.2583,-88.2131,65.61,1111122 
DISL,ioos:station:DISL:KATA:1,2017-04-01T03:00:00Z,30.2583,-88.2131,67.41,1111122 
DISL,ioos:station:DISL:KATA:1,2017-04-01T03:30:00Z,30.2583,-88.2131,70.7,1111122 
DISL,ioos:station:DISL:KATA:1,2017-04-01T04:00:00Z,30.2583,-88.2131,68.56,1111122 
DISL,ioos:station:DISL:KATA:1,2017-04-01T04:30:00Z,30.2583,-88.2131,72.33,1111122 
DISL,ioos:station:DISL:KATA:1,2017-04-01T05:00:00Z,30.2583,-88.2131,73.04,1111122 
DISL,ioos:station:DISL:KATA:1,2017-04-01T05:30:00Z,30.2583,-88.2131,74.13,1111122 
DISL,ioos:station:DISL:KATA:1,2017-04-01T06:00:00Z,30.2583,-88.2131,72.84,1111122 
DISL,ioos:station:DISL:KATA:1,2017-04-01T06:30:00Z,30.2583,-88.2131,73.45,1111122 
DISL,ioos:station:DISL:KATA:1,2017-04-01T07:00:00Z,30.2583,-88.2131,73.05,1111122 
DISL,ioos:station:DISL:KATA:1,2017-04-01T07:30:00Z,30.2583,-88.2131,78.68,1111122 
DISL,ioos:station:DISL:KATA:1,2017-04-01T08:00:00Z,30.2583,-88.2131,74.44,1111122 
DISL,ioos:station:DISL:KATA:1,2017-04-01T08:30:00Z,30.2583,-88.2131,74.0,1111122 
DISL,ioos:station:DISL:KATA:1,2017-04-01T09:00:00Z,30.2583,-88.2131,72.4,1111122 
DISL,ioos:station:DISL:KATA:1,2017-04-01T09:30:00Z,30.2583,-88.2131,69.49,1111122 
DISL,ioos:station:DISL:KATA:1,2017-04-01T10:00:00Z,30.2583,-88.2131,72.61,1111122 
DISL,ioos:station:DISL:KATA:1,2017-04-01T10:30:00Z,30.2583,-88.2131,72.41,1111122 
DISL,ioos:station:DISL:KATA:1,2017-04-01T11:00:00Z,30.2583,-88.2131,86.1,1111122 
DISL,ioos:station:DISL:KATA:1,2017-04-01T11:30:00Z,30.2583,-88.2131,87.1,1111122 
DISL,ioos:station:DISL:KATA:1,2017-04-01T12:00:00Z,30.2583,-88.2131,87.5,1111122 
DISL,ioos:station:DISL:KATA:1,2017-04-01T12:30:00Z,30.2583,-88.2131,88.6,1111122 
DISL,ioos:station:DISL:KATA:1,2017-04-01T13:00:00Z,30.2583,-88.2131,87.9,1111122 
DISL,ioos:station:DISL:KATA:1,2017-04-01T13:30:00Z,30.2583,-88.2131,85.3,1111122 
DISL,ioos:station:DISL:KATA:1,2017-04-01T14:00:00Z,30.2583,-88.2131,82.9,1111122 
DISL,ioos:station:DISL:KATA:1,2017-04-01T14:30:00Z,30.2583,-88.2131,77.71,1111122 
DISL,ioos:station:DISL:KATA:1,2017-04-01T15:00:00Z,30.2583,-88.2131,75.24,1111122 
DISL,ioos:station:DISL:KATA:1,2017-04-01T15:30:00Z,30.2583,-88.2131,76.26,1111122 
DISL,ioos:station:DISL:KATA:1,2017-04-01T16:00:00Z,30.2583,-88.2131,76.73,1111122 
DISL,ioos:station:DISL:KATA:1,2017-04-01T16:30:00Z,30.2583,-88.2131,77.48,1111122 
DISL,ioos:station:DISL:KATA:1,2017-04-01T17:00:00Z,30.2583,-88.2131,75.98,1111122 
DISL,ioos:station:DISL:KATA:1,2017-04-01T17:30:00Z,30.2583,-88.2131,73.88,1111122 
DISL,ioos:station:DISL:KATA:1,2017-04-01T18:00:00Z,30.2583,-88.2131,72.63,1111122 
DISL,ioos:station:DISL:KATA:1,2017-04-01T18:30:00Z,30.2583,-88.2131,73.7,1111122 
DISL,ioos:station:DISL:KATA:1,2017-04-01T19:00:00Z,30.2583,-88.2131,69.75,1111122 
DISL,ioos:station:DISL:KATA:1,2017-04-01T19:30:00Z,30.2583,-88.2131,69.49,1111122 
DISL,ioos:station:DISL:KATA:1,2017-04-01T20:00:00Z,30.2583,-88.2131,66.99,1111122 
DISL,ioos:station:DISL:KATA:1,2017-04-01T20:30:00Z,30.2583,-88.2131,68.08,1111122 
DISL,ioos:station:DISL:KATA:1,2017-04-01T21:00:00Z,30.2583,-88.2131,64.25,1111122 
DISL,ioos:station:DISL:KATA:1,2017-04-01T21:30:00Z,30.2583,-88.2131,63.2,1111122 
DISL,ioos:station:DISL:KATA:1,2017-04-01T22:00:00Z,30.2583,-88.2131,62.11,1111122 
DISL,ioos:station:DISL:KATA:1,2017-04-01T22:30:00Z,30.2583,-88.2131,66.11,1111122 
DISL,ioos:station:DISL:KATA:1,2017-04-01T23:00:00Z,30.2583,-88.2131,64.34,1111122 
DISL,ioos:station:DISL:KATA:1,2017-04-01T23:30:00Z,30.2583,-88.2131,65.2,1111122 
DISL,ioos:station:DISL:KATA:1,2017-04-02T00:00:00Z,30.2583,-88.2131,63.67,1111122 
DISL,ioos:station:DISL:KATA:1,2017-04-02T00:30:00Z,30.2583,-88.2131,69.2,1111122 
DISL,ioos:station:DISL:KATA:1,2017-04-02T01:00:00Z,30.2583,-88.2131,71.23,1111122 
DISL,ioos:station:DISL:KATA:1,2017-04-02T01:30:00Z,30.2583,-88.2131,67.06,1111122 
DISL,ioos:station:DISL:KATA:1,2017-04-02T02:00:00Z,30.2583,-88.2131,68.45,1111122 
DISL,ioos:station:DISL:KATA:1,2017-04-02T02:30:00Z,30.2583,-88.2131,68.59,1111122 
DISL,ioos:station:DISL:KATA:1,2017-04-02T03:00:00Z,30.2583,-88.2131,67.98,1111122 
DISL,ioos:station:DISL:KATA:1,2017-04-02T03:30:00Z,30.2583,-88.2131,66.28,1111122 
DISL,ioos:station:DISL:KATA:1,2017-04-02T04:00:00Z,30.2583,-88.2131,68.87,1111122 
DISL,ioos:station:DISL:KATA:1,2017-04-02T04:30:00Z,30.2583,-88.2131,70.15,1111122 
DISL,ioos:station:DISL:KATA:1,2017-04-02T05:00:00Z,30.2583,-88.2131,71.04,1111122 
DISL,ioos:station:DISL:KATA:1,2017-04-02T05:30:00Z,30.2583,-88.2131,73.21,1111122 
DISL,ioos:station:DISL:KATA:1,2017-04-02T06:00:00Z,30.2583,-88.2131,71.48,1111122 
DISL,ioos:station:DISL:KATA:1,2017-04-02T06:30:00Z,30.2583,-88.2131,75.55,1111122 
DISL,ioos:station:DISL:KATA:1,2017-04-02T07:00:00Z,30.2583,-88.2131,80.6,1111122 
DISL,ioos:station:DISL:KATA:1,2017-04-02T07:30:00Z,30.2583,-88.2131,79.25,1111122 
DISL,ioos:station:DISL:KATA:1,2017-04-02T08:00:00Z,30.2583,-88.2131,80.2,1111122 
DISL,ioos:station:DISL:KATA:1,2017-04-02T08:30:00Z,30.2583,-88.2131,82.1,1111122 
DISL,ioos:station:DISL:KATA:1,2017-04-02T09:00:00Z,30.2583,-88.2131,83.2,1111122 
DISL,ioos:station:DISL:KATA:1,2017-04-02T09:30:00Z,30.2583,-88.2131,84.7,1111122 
DISL,ioos:station:DISL:KATA:1,2017-04-02T10:00:00Z,30.2583,-88.2131,85.2,1111122 
DISL,ioos:station:DISL:KATA:1,2017-04-02T10:30:00Z,30.2583,-88.2131,87.5,1111122 
DISL,ioos:station:DISL:KATA:1,2017-04-02T11:00:00Z,30.2583,-88.2131,88.4,1111122 
DISL,ioos:station:DISL:KATA:1,2017-04-02T11:30:00Z,30.2583,-88.2131,89.7,1111122 
DISL,ioos:station:DISL:KATA:1,2017-04-02T12:00:00Z,30.2583,-88.2131,88.6,1111122 
DISL,ioos:station:DISL:KATA:1,2017-04-02T12:30:00Z,30.2583,-88.2131,88.8,1111122 
DISL,ioos:station:DISL:KATA:1,2017-04-02T13:00:00Z,30.2583,-88.2131,87.0,1111122 
DISL,ioos:station:DISL:KATA:1,2017-04-02T13:30:00Z,30.2583,-88.2131,86.3,1111122 
DISL,ioos:station:DISL:KATA:1,2017-04-02T14:00:00Z,30.2583,-88.2131,85.8,1111122 
DISL,ioos:station:DISL:KATA:1,2017-04-02T14:30:00Z,30.2583,-88.2131,84.7,1111122 
DISL,ioos:station:DISL:KATA:1,2017-04-02T15:00:00Z,30.2583,-88.2131,84.9,1111122 
DISL,ioos:station:DISL:KATA:1,2017-04-02T15:30:00Z,30.2583,-88.2131,84.5,1111122 
DISL,ioos:station:DISL:KATA:1,2017-04-02T16:00:00Z,30.2583,-88.2131,82.5,1111122 
DISL,ioos:station:DISL:KATA:1,2017-04-02T16:30:00Z,30.2583,-88.2131,82.9,1111122 
DISL,ioos:station:DISL:KATA:1,2017-04-02T17:00:00Z,30.2583,-88.2131,83.5,1111122 
DISL,ioos:station:DISL:KATA:1,2017-04-02T17:30:00Z,30.2583,-88.2131,85.9,1111122 
DISL,ioos:station:DISL:KATA:1,2017-04-02T18:00:00Z,30.2583,-88.2131,84.8,1111122 
DISL,ioos:station:DISL:KATA:1,2017-04-02T18:30:00Z,30.2583,-88.2131,84.0,1111122 
DISL,ioos:station:DISL:KATA:1,2017-04-02T19:00:00Z,30.2583,-88.2131,81.8,1111122 
DISL,ioos:station:DISL:KATA:1,2017-04-02T19:30:00Z,30.2583,-88.2131,82.7,1111122 
DISL,ioos:station:DISL:KATA:1,2017-04-02T20:00:00Z,30.2583,-88.2131,83.4,1111122 
DISL,ioos:station:DISL:KATA:1,2017-04-02T20:30:00Z,30.2583,-88.2131,83.2,1111122 
DISL,ioos:station:DISL:KATA:1,2017-04-02T21:00:00Z,30.2583,-88.2131,83.5,1111122 
DISL,ioos:station:DISL:KATA:1,2017-04-02T21:30:00Z,30.2583,-88.2131,83.0,1111122 
DISL,ioos:station:DISL:KATA:1,2017-04-02T22:00:00Z,30.2583,-88.2131,82.6,1111122 
DISL,ioos:station:DISL:KATA:1,2017-04-02T22:30:00Z,30.2583,-88.2131,85.4,1111122 
DISL,ioos:station:DISL:KATA:1,2017-04-02T23:00:00Z,30.2583,-88.2131,86.8,1111122 
DISL,ioos:station:DISL:KATA:1,2017-04-02T23:30:00Z,30.2583,-88.2131,89.1,1111122 
DISL,ioos:station:DISL:KATA:1,2017-04-03T00:00:00Z,30.2583,-88.2131,90.9,1111122 
DISL,ioos:station:DISL:KATA:1,2017-04-03T00:30:00Z,30.2583,-88.2131,91.3,1111122 
DISL,ioos:station:DISL:KATA:1,2017-04-03T01:00:00Z,30.2583,-88.2131,92.3,1111122 
DISL,ioos:station:DISL:KATA:1,2017-04-03T01:30:00Z,30.2583,-88.2131,92.4,1111122 
DISL,ioos:station:DISL:KATA:1,2017-04-03T02:00:00Z,30.2583,-88.2131,92.9,1111122 
DISL,ioos:station:DISL:KATA:1,2017-04-03T02:30:00Z,30.2583,-88.2131,92.4,1111122 
DISL,ioos:station:DISL:KATA:1,2017-04-03T03:00:00Z,30.2583,-88.2131,92.0,1111122 
DISL,ioos:station:DISL:KATA:1,2017-04-03T03:30:00Z,30.2583,-88.2131,92.6,1111122 
DISL,ioos:station:DISL:KATA:1,2017-04-03T04:00:00Z,30.2583,-88.2131,92.7,1111122 
DISL,ioos:station:DISL:KATA:1,2017-04-03T04:30:00Z,30.2583,-88.2131,92.7,1111122 
DISL,ioos:station:DISL:KATA:1,2017-04-03T05:00:00Z,30.2583,-88.2131,92.9,1111122 
DISL,ioos:station:DISL:KATA:1,2017-04-03T05:30:00Z,30.2583,-88.2131,93.4,1111122 
DISL,ioos:station:DISL:KATA:1,2017-04-03T06:00:00Z,30.2583,-88.2131,93.6,1111122 
DISL,ioos:station:DISL:KATA:1,2017-04-03T06:30:00Z,30.2583,-88.2131,93.2,1111122 
DISL,ioos:station:DISL:KATA:1,2017-04-03T07:00:00Z,30.2583,-88.2131,93.3,1111122 
DISL,ioos:station:DISL:KATA:1,2017-04-03T07:30:00Z,30.2583,-88.2131,93.9,1111122 
DISL,ioos:station:DISL:KATA:1,2017-04-03T08:00:00Z,30.2583,-88.2131,92.4,1111122 
DISL,ioos:station:DISL:KATA:1,2017-04-03T08:30:00Z,30.2583,-88.2131,92.9,1111122 
DISL,ioos:station:DISL:KATA:1,2017-04-03T09:00:00Z,30.2583,-88.2131,91.8,1111122 
DISL,ioos:station:DISL:KATA:1,2017-04-03T09:30:00Z,30.2583,-88.2131,91.8,1111122 
DISL,ioos:station:DISL:KATA:1,2017-04-03T10:00:00Z,30.2583,-88.2131,92.6,1111122 
DISL,ioos:station:DISL:KATA:1,2017-04-03T10:30:00Z,30.2583,-88.2131,91.6,1111122 
DISL,ioos:station:DISL:KATA:1,2017-04-03T11:00:00Z,30.2583,-88.2131,91.9,1111122 
DISL,ioos:station:DISL:KATA:1,2017-04-03T11:30:00Z,30.2583,-88.2131,91.5,1111122 
DISL,ioos:station:DISL:KATA:1,2017-04-03T12:00:00Z,30.2583,-88.2131,91.7,1111122 
DISL,ioos:station:DISL:KATA:1,2017-04-03T12:30:00Z,30.2583,-88.2131,91.0,1111122 
DISL,ioos:station:DISL:KATA:1,2017-04-03T13:00:00Z,30.2583,-88.2131,90.7,1111122 
DISL,ioos:station:DISL:KATA:1,2017-04-03T13:30:00Z,30.2583,-88.2131,90.7,1111122 
DISL,ioos:station:DISL:KATA:1,2017-04-03T14:00:00Z,30.2583,-88.2131,87.0,1111122 
DISL,ioos:station:DISL:KATA:1,2017-04-03T14:30:00Z,30.2583,-88.2131,96.9,1111122 
DISL,ioos:station:DISL:KATA:1,2017-04-03T15:00:00Z,30.2583,-88.2131,97.0,1111122 
DISL,ioos:station:DISL:KATA:1,2017-04-03T15:30:00Z,30.2583,-88.2131,95.9,1111122 
DISL,ioos:station:DISL:KATA:1,2017-04-03T16:00:00Z,30.2583,-88.2131,95.2,1111122 
DISL,ioos:station:DISL:KATA:1,2017-04-03T16:30:00Z,30.2583,-88.2131,93.6,1111122 
DISL,ioos:station:DISL:KATA:1,2017-04-03T17:00:00Z,30.2583,-88.2131,90.2,1111122 
DISL,ioos:station:DISL:KATA:1,2017-04-03T17:30:00Z,30.2583,-88.2131,91.4,1111122 
DISL,ioos:station:DISL:KATA:1,2017-04-03T18:00:00Z,30.2583,-88.2131,91.2,1111122 
DISL,ioos:station:DISL:KATA:1,2017-04-03T18:30:00Z,30.2583,-88.2131,86.8,1111122 
DISL,ioos:station:DISL:KATA:1,2017-04-03T19:00:00Z,30.2583,-88.2131,88.5,1111122 
DISL,ioos:station:DISL:KATA:1,2017-04-03T19:30:00Z,30.2583,-88.2131,88.2,1111122 
DISL,ioos:station:DISL:KATA:1,2017-04-03T20:00:00Z,30.2583,-88.2131,87.9,1111122 
DISL,ioos:station:DISL:KATA:1,2017-04-03T20:30:00Z,30.2583,-88.2131,88.4,1111122 
DISL,ioos:station:DISL:KATA:1,2017-04-03T21:00:00Z,30.2583,-88.2131,87.4,1111122 
DISL,ioos:station:DISL:KATA:1,2017-04-03T21:30:00Z,30.2583,-88.2131,87.8,1111122 
DISL,ioos:station:DISL:KATA:1,2017-04-03T22:00:00Z,30.2583,-88.2131,85.9,1111122 
DISL,ioos:station:DISL:KATA:1,2017-04-03T22:30:00Z,30.2583,-88.2131,85.8,1111122 
DISL,ioos:station:DISL:KATA:1,2017-04-03T23:00:00Z,30.2583,-88.2131,86.4,1111122 
DISL,ioos:station:DISL:KATA:1,2017-04-03T23:30:00Z,30.2583,-88.2131,85.5,1111122 
DISL,ioos:station:DISL:KATA:1,2017-04-04T00:00:00Z,30.2583,-88.2131,87.8,1111122 
DISL,ioos:station:DISL:KATA:1,2017-04-04T00:30:00Z,30.2583,-88.2131,87.7,1111122 
DISL,ioos:station:DISL:KATA:1,2017-04-04T01:00:00Z,30.2583,-88.2131,87.9,1111122 
DISL,ioos:station:DISL:KATA:1,2017-04-04T01:30:00Z,30.2583,-88.2131,87.8,1111122 
DISL,ioos:station:DISL:KATA:1,2017-04-04T02:00:00Z,30.2583,-88.2131,88.3,1111122 
DISL,ioos:station:DISL:KATA:1,2017-04-04T02:30:00Z,30.2583,-88.2131,88.9,1111122 
DISL,ioos:station:DISL:KATA:1,2017-04-04T03:00:00Z,30.2583,-88.2131,89.5,1111122 
DISL,ioos:station:DISL:KATA:1,2017-04-04T03:30:00Z,30.2583,-88.2131,88.9,1111122 
DISL,ioos:station:DISL:KATA:1,2017-04-04T04:00:00Z,30.2583,-88.2131,89.4,1111122 
DISL,ioos:station:DISL:KATA:1,2017-04-04T04:30:00Z,30.2583,-88.2131,89.9,1111122 
DISL,ioos:station:DISL:KATA:1,2017-04-04T05:00:00Z,30.2583,-88.2131,89.4,1111122 
DISL,ioos:station:DISL:KATA:1,2017-04-04T05:30:00Z,30.2583,-88.2131,87.2,1111122 
DISL,ioos:station:DISL:KATA:1,2017-04-04T06:00:00Z,30.2583,-88.2131,85.8,1111122 
DISL,ioos:station:DISL:KATA:1,2017-04-04T06:30:00Z,30.2583,-88.2131,88.5,1111122 
DISL,ioos:station:DISL:KATA:1,2017-04-04T07:00:00Z,30.2583,-88.2131,88.9,1111122 
DISL,ioos:station:DISL:KATA:1,2017-04-04T07:30:00Z,30.2583,-88.2131,90.7,1111122 
DISL,ioos:station:DISL:KATA:1,2017-04-04T08:00:00Z,30.2583,-88.2131,92.1,1111122 
DISL,ioos:station:DISL:KATA:1,2017-04-04T08:30:00Z,30.2583,-88.2131,92.8,1111122 
DISL,ioos:station:DISL:KATA:1,2017-04-04T09:00:00Z,30.2583,-88.2131,93.2,1111122 
DISL,ioos:station:DISL:KATA:1,2017-04-04T09:30:00Z,30.2583,-88.2131,93.4,1111122 
DISL,ioos:station:DISL:KATA:1,2017-04-04T10:00:00Z,30.2583,-88.2131,94.1,1111122 
DISL,ioos:station:DISL:KATA:1,2017-04-04T10:30:00Z,30.2583,-88.2131,93.9,1111122 
DISL,ioos:station:DISL:KATA:1,2017-04-04T11:00:00Z,30.2583,-88.2131,93.7,1111122 
DISL,ioos:station:DISL:KATA:1,2017-04-04T11:30:00Z,30.2583,-88.2131,93.5,1111122 
DISL,ioos:station:DISL:KATA:1,2017-04-04T12:00:00Z,30.2583,-88.2131,95.7,1111122 
DISL,ioos:station:DISL:KATA:1,2017-04-04T12:30:00Z,30.2583,-88.2131,96.0,1111122 
DISL,ioos:station:DISL:KATA:1,2017-04-04T13:00:00Z,30.2583,-88.2131,97.5,1111122 
DISL,ioos:station:DISL:KATA:1,2017-04-04T13:30:00Z,30.2583,-88.2131,97.8,1111122 
DISL,ioos:station:DISL:KATA:1,2017-04-04T14:00:00Z,30.2583,-88.2131,96.9,1111122 
DISL,ioos:station:DISL:KATA:1,2017-04-04T14:30:00Z,30.2583,-88.2131,95.7,1111122 
DISL,ioos:station:DISL:KATA:1,2017-04-04T15:00:00Z,30.2583,-88.2131,93.1,1111122 
DISL,ioos:station:DISL:KATA:1,2017-04-04T15:30:00Z,30.2583,-88.2131,91.9,1111122 
DISL,ioos:station:DISL:KATA:1,2017-04-04T16:00:00Z,30.2583,-88.2131,91.2,1111122 
DISL,ioos:station:DISL:KATA:1,2017-04-04T16:30:00Z,30.2583,-88.2131,90.0,1111122 
DISL,ioos:station:DISL:KATA:1,2017-04-04T17:00:00Z,30.2583,-88.2131,89.9,1111122 
DISL,ioos:station:DISL:KATA:1,2017-04-04T17:30:00Z,30.2583,-88.2131,89.9,1111122 
DISL,ioos:station:DISL:KATA:1,2017-04-04T18:00:00Z,30.2583,-88.2131,91.0,1111122 
DISL,ioos:station:DISL:KATA:1,2017-04-04T18:30:00Z,30.2583,-88.2131,88.9,1111122 
DISL,ioos:station:DISL:KATA:1,2017-04-04T19:00:00Z,30.2583,-88.2131,88.5,1111122 
DISL,ioos:station:DISL:KATA:1,2017-04-04T19:30:00Z,30.2583,-88.2131,88.6,1111122 
DISL,ioos:station:DISL:KATA:1,2017-04-04T20:00:00Z,30.2583,-88.2131,82.9,1111122 
DISL,ioos:station:DISL:KATA:1,2017-04-04T20:30:00Z,30.2583,-88.2131,76.22,1111122 
DISL,ioos:station:DISL:KATA:1,2017-04-04T21:00:00Z,30.2583,-88.2131,80.2,1111122 
DISL,ioos:station:DISL:KATA:1,2017-04-04T21:30:00Z,30.2583,-88.2131,78.22,1111122 
DISL,ioos:station:DISL:KATA:1,2017-04-04T22:00:00Z,30.2583,-88.2131,78.39,1111122 
DISL,ioos:station:DISL:KATA:1,2017-04-04T22:30:00Z,30.2583,-88.2131,77.37,1111122 
DISL,ioos:station:DISL:KATA:1,2017-04-04T23:00:00Z,30.2583,-88.2131,82.2,1111122 
DISL,ioos:station:DISL:KATA:1,2017-04-04T23:30:00Z,30.2583,-88.2131,84.7,1111122 
DISL,ioos:station:DISL:KATA:1,2017-04-05T00:00:00Z,30.2583,-88.2131,86.8,1111122 
DISL,ioos:station:DISL:KATA:1,2017-04-05T00:30:00Z,30.2583,-88.2131,88.7,1111122 
DISL,ioos:station:DISL:KATA:1,2017-04-05T01:00:00Z,30.2583,-88.2131,89.7,1111122 
DISL,ioos:station:DISL:KATA:1,2017-04-05T01:30:00Z,30.2583,-88.2131,90.4,1111122 
DISL,ioos:station:DISL:KATA:1,2017-04-05T02:00:00Z,30.2583,-88.2131,91.3,1111122 
DISL,ioos:station:DISL:KATA:1,2017-04-05T02:30:00Z,30.2583,-88.2131,92.3,1111122 
DISL,ioos:station:DISL:KATA:1,2017-04-05T03:00:00Z,30.2583,-88.2131,93.8,1111122 
DISL,ioos:station:DISL:KATA:1,2017-04-05T03:30:00Z,30.2583,-88.2131,94.3,1111122 
DISL,ioos:station:DISL:KATA:1,2017-04-05T04:00:00Z,30.2583,-88.2131,95.1,1111122 
DISL,ioos:station:DISL:KATA:1,2017-04-05T04:30:00Z,30.2583,-88.2131,96.3,1111122 
DISL,ioos:station:DISL:KATA:1,2017-04-05T05:00:00Z,30.2583,-88.2131,96.6,1111122 
DISL,ioos:station:DISL:KATA:1,2017-04-05T05:30:00Z,30.2583,-88.2131,96.7,1111122 
DISL,ioos:station:DISL:KATA:1,2017-04-05T06:00:00Z,30.2583,-88.2131,96.7,1111122 
DISL,ioos:station:DISL:KATA:1,2017-04-05T06:30:00Z,30.2583,-88.2131,96.6,1111122 
DISL,ioos:station:DISL:KATA:1,2017-04-05T07:00:00Z,30.2583,-88.2131,96.6,1111122 
DISL,ioos:station:DISL:KATA:1,2017-04-05T07:30:00Z,30.2583,-88.2131,96.6,1111122 
DISL,ioos:station:DISL:KATA:1,2017-04-05T08:00:00Z,30.2583,-88.2131,96.6,1111122 
DISL,ioos:station:DISL:KATA:1,2017-04-05T08:30:00Z,30.2583,-88.2131,96.2,1111122 
DISL,ioos:station:DISL:KATA:1,2017-04-05T09:00:00Z,30.2583,-88.2131,96.1,1111122 
DISL,ioos:station:DISL:KATA:1,2017-04-05T09:30:00Z,30.2583,-88.2131,96.1,1111122 
DISL,ioos:station:DISL:KATA:1,2017-04-05T10:00:00Z,30.2583,-88.2131,96.3,1111122 
DISL,ioos:station:DISL:KATA:1,2017-04-05T10:30:00Z,30.2583,-88.2131,96.0,1111122 
DISL,ioos:station:DISL:KATA:1,2017-04-05T11:00:00Z,30.2583,-88.2131,96.3,1111122 
DISL,ioos:station:DISL:KATA:1,2017-04-05T11:30:00Z,30.2583,-88.2131,96.1,1111122 
DISL,ioos:station:DISL:KATA:1,2017-04-05T12:00:00Z,30.2583,-88.2131,96.4,1111122 
DISL,ioos:station:DISL:KATA:1,2017-04-05T12:30:00Z,30.2583,-88.2131,95.9,1111122 
DISL,ioos:station:DISL:KATA:1,2017-04-05T13:00:00Z,30.2583,-88.2131,95.8,1111122 
DISL,ioos:station:DISL:KATA:1,2017-04-05T13:30:00Z,30.2583,-88.2131,95.7,1111122 
DISL,ioos:station:DISL:KATA:1,2017-04-05T14:00:00Z,30.2583,-88.2131,95.1,1111122 
DISL,ioos:station:DISL:KATA:1,2017-04-05T14:30:00Z,30.2583,-88.2131,95.6,1111122 
DISL,ioos:station:DISL:KATA:1,2017-04-05T15:00:00Z,30.2583,-88.2131,95.7,1111122 
DISL,ioos:station:DISL:KATA:1,2017-04-05T15:30:00Z,30.2583,-88.2131,94.9,1111122 
DISL,ioos:station:DISL:KATA:1,2017-04-05T16:00:00Z,30.2583,-88.2131,90.2,1111122 
DISL,ioos:station:DISL:KATA:1,2017-04-05T16:30:00Z,30.2583,-88.2131,92.4,1111122 
DISL,ioos:station:DISL:KATA:1,2017-04-05T17:00:00Z,30.2583,-88.2131,93.3,1111122 
DISL,ioos:station:DISL:KATA:1,2017-04-05T17:30:00Z,30.2583,-88.2131,94.1,1111122 
DISL,ioos:station:DISL:KATA:1,2017-04-05T18:00:00Z,30.2583,-88.2131,94.4,1111122 
DISL,ioos:station:DISL:KATA:1,2017-04-05T18:30:00Z,30.2583,-88.2131,94.3,1111122 
DISL,ioos:station:DISL:KATA:1,2017-04-05T19:00:00Z,30.2583,-88.2131,94.6,1111122 
DISL,ioos:station:DISL:KATA:1,2017-04-05T19:30:00Z,30.2583,-88.2131,94.8,1111122 
DISL,ioos:station:DISL:KATA:1,2017-04-05T20:00:00Z,30.2583,-88.2131,94.5,1111122 
DISL,ioos:station:DISL:KATA:1,2017-04-05T20:30:00Z,30.2583,-88.2131,94.2,1111122 
DISL,ioos:station:DISL:KATA:1,2017-04-05T21:00:00Z,30.2583,-88.2131,94.0,1111122 
DISL,ioos:station:DISL:KATA:1,2017-04-05T21:30:00Z,30.2583,-88.2131,94.1,1111122 
DISL,ioos:station:DISL:KATA:1,2017-04-05T22:00:00Z,30.2583,-88.2131,93.4,1111122 
DISL,ioos:station:DISL:KATA:1,2017-04-05T22:30:00Z,30.2583,-88.2131,93.4,1111122 
DISL,ioos:station:DISL:KATA:1,2017-04-05T23:00:00Z,30.2583,-88.2131,92.6,1111122 
DISL,ioos:station:DISL:KATA:1,2017-04-05T23:30:00Z,30.2583,-88.2131,92.9,1111122 
DISL,ioos:station:DISL:KATA:1,2017-04-06T00:00:00Z,30.2583,-88.2131,93.3,1111122 
DISL,ioos:station:DISL:KATA:1,2017-04-06T00:30:00Z,30.2583,-88.2131,84.5,1111122 
DISL,ioos:station:DISL:KATA:1,2017-04-06T01:00:00Z,30.2583,-88.2131,57.73,1111122 
DISL,ioos:station:DISL:KATA:1,2017-04-06T01:30:00Z,30.2583,-88.2131,56.38,1111122 
DISL,ioos:station:DISL:KATA:1,2017-04-06T02:00:00Z,30.2583,-88.2131,43.66,1111122 
DISL,ioos:station:DISL:KATA:1,2017-04-06T02:30:00Z,30.2583,-88.2131,46.54,1111122 
DISL,ioos:station:DISL:KATA:1,2017-04-06T03:00:00Z,30.2583,-88.2131,52.99,1111122 
DISL,ioos:station:DISL:KATA:1,2017-04-06T03:30:00Z,30.2583,-88.2131,52.95,1111122 
DISL,ioos:station:DISL:KATA:1,2017-04-06T04:00:00Z,30.2583,-88.2131,55.61,1111122 
DISL,ioos:station:DISL:KATA:1,2017-04-06T04:30:00Z,30.2583,-88.2131,55.55,1111122 
DISL,ioos:station:DISL:KATA:1,2017-04-06T05:00:00Z,30.2583,-88.2131,60.88,1111122 
DISL,ioos:station:DISL:KATA:1,2017-04-06T05:30:00Z,30.2583,-88.2131,55.75,1111122 
DISL,ioos:station:DISL:KATA:1,2017-04-06T06:00:00Z,30.2583,-88.2131,53.38,1111122 
DISL,ioos:station:DISL:KATA:1,2017-04-06T06:30:00Z,30.2583,-88.2131,56.14,1111122 
DISL,ioos:station:DISL:KATA:1,2017-04-06T07:00:00Z,30.2583,-88.2131,54.31,1111122 
DISL,ioos:station:DISL:KATA:1,2017-04-06T07:30:00Z,30.2583,-88.2131,58.52,1111122 
DISL,ioos:station:DISL:KATA:1,2017-04-06T08:00:00Z,30.2583,-88.2131,57.4,1111122 
DISL,ioos:station:DISL:KATA:1,2017-04-06T08:30:00Z,30.2583,-88.2131,57.09,1111122 
DISL,ioos:station:DISL:KATA:1,2017-04-06T09:00:00Z,30.2583,-88.2131,60.39,1111122 
DISL,ioos:station:DISL:KATA:1,2017-04-06T09:30:00Z,30.2583,-88.2131,54.55,1111122 
DISL,ioos:station:DISL:KATA:1,2017-04-06T10:00:00Z,30.2583,-88.2131,56.38,1111122 
DISL,ioos:station:DISL:KATA:1,2017-04-06T10:30:00Z,30.2583,-88.2131,62.59,1111122 
DISL,ioos:station:DISL:KATA:1,2017-04-06T11:00:00Z,30.2583,-88.2131,57.6,1111122 
DISL,ioos:station:DISL:KATA:1,2017-04-06T11:30:00Z,30.2583,-88.2131,61.81,1111122 
DISL,ioos:station:DISL:KATA:1,2017-04-06T12:00:00Z,30.2583,-88.2131,62.42,1111122 
DISL,ioos:station:DISL:KATA:1,2017-04-06T12:30:00Z,30.2583,-88.2131,57.6,1111122 
DISL,ioos:station:DISL:KATA:1,2017-04-06T13:00:00Z,30.2583,-88.2131,60.25,1111122 
DISL,ioos:station:DISL:KATA:1,2017-04-06T13:30:00Z,30.2583,-88.2131,56.92,1111122 
DISL,ioos:station:DISL:KATA:1,2017-04-06T14:00:00Z,30.2583,-88.2131,64.22,1111122 
DISL,ioos:station:DISL:KATA:1,2017-04-06T14:30:00Z,30.2583,-88.2131,57.87,1111122 
DISL,ioos:station:DISL:KATA:1,2017-04-06T15:00:00Z,30.2583,-88.2131,57.59,1111122 
DISL,ioos:station:DISL:KATA:1,2017-04-06T15:30:00Z,30.2583,-88.2131,47.54,1111122 
DISL,ioos:station:DISL:KATA:1,2017-04-06T16:00:00Z,30.2583,-88.2131,47.34,1111122 
DISL,ioos:station:DISL:KATA:1,2017-04-06T16:30:00Z,30.2583,-88.2131,44.01,1111122 
DISL,ioos:station:DISL:KATA:1,2017-04-06T17:00:00Z,30.2583,-88.2131,41.53,1111122 
DISL,ioos:station:DISL:KATA:1,2017-04-06T17:30:00Z,30.2583,-88.2131,33.08,1111122 
DISL,ioos:station:DISL:KATA:1,2017-04-06T18:00:00Z,30.2583,-88.2131,48.76,1111122 
DISL,ioos:station:DISL:KATA:1,2017-04-06T18:30:00Z,30.2583,-88.2131,32.78,1111122 
DISL,ioos:station:DISL:KATA:1,2017-04-06T19:00:00Z,30.2583,-88.2131,33.8,1111122 
DISL,ioos:station:DISL:KATA:1,2017-04-06T19:30:00Z,30.2583,-88.2131,41.91,1111122 
DISL,ioos:station:DISL:KATA:1,2017-04-06T20:00:00Z,30.2583,-88.2131,37.09,1111122 
DISL,ioos:station:DISL:KATA:1,2017-04-06T20:30:00Z,30.2583,-88.2131,39.33,1111122 
DISL,ioos:station:DISL:KATA:1,2017-04-06T21:00:00Z,30.2583,-88.2131,37.19,1111122 
DISL,ioos:station:DISL:KATA:1,2017-04-06T21:30:00Z,30.2583,-88.2131,33.93,1111122 
DISL,ioos:station:DISL:KATA:1,2017-04-06T22:00:00Z,30.2583,-88.2131,34.78,1111122 
DISL,ioos:station:DISL:KATA:1,2017-04-06T22:30:00Z,30.2583,-88.2131,38.98,1111122 
DISL,ioos:station:DISL:KATA:1,2017-04-06T23:00:00Z,30.2583,-88.2131,39.25,1111122 
DISL,ioos:station:DISL:KATA:1,2017-04-06T23:30:00Z,30.2583,-88.2131,33.45,1111122 
DISL,ioos:station:DISL:KATA:1,2017-04-07T00:00:00Z,30.2583,-88.2131,41.8,1111122 
DISL,ioos:station:DISL:KATA:1,2017-04-07T00:30:00Z,30.2583,-88.2131,38.31,1111122 